This is the latest recevied weather packets stored in our database for station/object DB0ROB-10. If no packets are shown the sender has not sent any weather packets the latest 10 day(s).
| Time | Temp. | Humidity | Pressure | Rain* | Wind** | Luminosity | Snow |
|---|---|---|---|---|---|---|---|
| 1778113004 | 6.67° C | 86% | 1010 hPa | - | - | - | - |
| 1778112104 | 6.67° C | 86% | 1010 hPa | - | - | - | - |
| 1778111204 | 6.67° C | 86% | 1010.1 hPa | - | - | - | - |
| 1778110304 | 6.67° C | 85% | 1009.9 hPa | - | - | - | - |
| 1778109404 | 6.67° C | 86% | 1010 hPa | - | - | - | - |
| 1778108504 | 6.67° C | 86% | 1010 hPa | - | - | - | - |
| 1778107603 | 6.67° C | 87% | 1010.1 hPa | - | - | - | - |
| 1778106703 | 6.67° C | 87% | 1010 hPa | - | - | - | - |
| 1778105802 | 6.67° C | 87% | 1010.1 hPa | - | - | - | - |
| 1778104902 | 6.67° C | 89% | 1010.1 hPa | - | - | - | - |
| 1778104002 | 6.67° C | 87% | 1010.1 hPa | - | - | - | - |
| 1778103102 | 6.67° C | 86% | 1009.8 hPa | - | - | - | - |
| 1778102201 | 6.67° C | 88% | 1009.8 hPa | - | - | - | - |
| 1778101301 | 6.67° C | 88% | 1009.5 hPa | - | - | - | - |
| 1778100400 | 7.22° C | 86% | 1009.6 hPa | - | - | - | - |
| 1778099500 | 7.22° C | 86% | 1009.4 hPa | - | - | - | - |
| 1778098599 | 7.22° C | 85% | 1009.5 hPa | - | - | - | - |
| 1778097699 | 7.22° C | 87% | 1009.5 hPa | - | - | - | - |
| 1778096805 | 7.78° C | 84% | 1009.3 hPa | - | - | - | - |
| 1778095905 | 7.78° C | 86% | 1009.1 hPa | - | - | - | - |
| 1778095005 | 7.78° C | 87% | 1009 hPa | - | - | - | - |
| 1778094105 | 7.78° C | 89% | 1009 hPa | - | - | - | - |
| 1778093205 | 7.78° C | 88% | 1008.8 hPa | - | - | - | - |
| 1778092305 | 8.33° C | 86% | 1008.6 hPa | - | - | - | - |
| 1778091404 | 7.78° C | 86% | 1008.5 hPa | - | - | - | - |
* Rain since midnight (hover to see other rain measurements)
** Current wind speed in m/s (hover to see current wind gust speed)